Location: Fouquescourt
(49.7701°N, 2.7524°E)
Time: 00:29:31
(UTC+00:00)

Daily predictions for brighter satellites

Satellite Brightness Start Highest point End
(mag) Time Altitude Azimuth Time Altitude Azimuth Time Altitude Azimuth
ACS3 Solar Sail 4.0 02:01:00 10° NE 02:03:45 19° ENE 02:03:45 19° ENE
ADEOS Rocket 4.2 02:33:30 10° NNE 02:38:45 42° ENE 02:38:45 42° ENE
BREEZE-M DEB (TANK) 4.5 02:53:28 76° SE 02:53:28 76° SE 03:12:58 10° ESE
Cosmos 2219 Rocket 3.8 02:55:06 31° ENE 02:55:06 31° ENE 02:58:48 10° NE
USA 267 3.4 03:14:05 10° ENE 03:20:18 66° SE 03:20:18 66° SE
Cosmos 1980 Rocket 4.4 03:27:56 14° N 03:27:56 14° N 03:29:11 10° N
H-2A R/B 4.0 03:26:35 10° NNE 03:28:05 20° NNE 03:28:05 20° NNE
USA 238 DEB 4.2 03:33:04 46° N 03:33:04 46° N 03:38:40 10° NE
USA 238 4.2 03:33:10 46° N 03:33:10 46° N 03:38:47 10° NE
Cosmos 2278 Rocket 3.7 03:29:48 23° N 03:32:19 32° NE 03:37:21 10° ESE
Cosmos 2333 Rocket 3.3 03:39:30 36° N 03:39:30 36° N 03:43:01 10° NNE
ADEOS II 4.2 03:38:51 10° N 03:39:55 16° N 03:39:55 16° N
COSMOS 2455 3.2 03:45:06 55° N 03:45:06 55° N 03:50:00 10° NNE
Lacrosse 5 rocket 3.9 03:46:58 14° NE 03:46:58 14° NE 03:47:30 10° NE
Cosmos 1153 Rocket 4.5 03:39:23 10° N 03:45:36 78° E 03:51:50 10° SSE
Cosmos 2298 Rocket 4.4 03:46:57 61° NE 03:46:57 61° NE 03:51:24 10° NNE
ACS3 Solar Sail 2.0 03:43:07 10° N 03:47:53 56° N 03:47:53 56° N
BlueWalker 3 4.2 03:53:51 20° ESE 03:53:51 20° ESE 03:55:05 10° ESE
Resurs 1-4 Rocket 4.4 03:47:49 10° N 03:48:14 12° N 03:48:14 12° N
CENTAUR R/B 4.2 03:52:18 23° NNW 03:55:35 32° NNE 04:03:09 10° ENE
Cosmos 2360 Rocket 2.8 03:59:09 44° N 03:59:09 44° N 04:03:23 10° NNE
Cosmos 2322 Rocket 3.0 03:59:32 39° N 03:59:32 39° N 04:03:34 10° NNE
USA 234 3.1 03:51:55 10° SE 03:58:26 66° SW 03:58:53 64° WSW
Gbstr 26 Del rocket 4.3 03:59:16 37° SSE 03:59:56 39° SE 04:05:12 10° ENE
SL-16 R/B 3.5 04:06:02 26° NNW 04:06:02 26° NNW 04:09:20 10° NNE
Cosmos 44 Rocket 3.4 04:05:02 76° NNE 04:05:17 78° NE 04:10:26 10° SE
Cosmos 1943 Rocket 2.8 04:06:17 23° NNW 04:09:34 53° NE 04:14:56 10° SE
Meteor 2-14 Rocket 4.5 04:05:54 10° S 04:12:00 80° E 04:18:07 10° NNE
Okean 1-7 3.6 04:13:10 47° NNE 04:13:10 47° NNE 04:16:16 10° NNE
H-2A R/B 4.3 04:08:33 10° NNE 04:11:15 41° NE 04:11:15 41° NE
NOSS 2-1 (C) 4.4 04:14:58 34° ESE 04:14:58 34° ESE 04:17:17 10° ENE
ARGOS 3.0 04:09:30 10° NNE 04:14:58 79° WNW 04:16:17 52° SSW
PAYLOAD A 4.1 04:10:19 10° NNE 04:15:47 81° ESE 04:20:29 14° SSW
Cosmos 1908 Rocket 4.4 04:11:36 10° N 04:15:57 51° ENE 04:20:16 10° SSE
Cosmos 1140 Rocket 3.4 04:15:55 40° NNW 04:17:47 82° ENE 04:22:53 10° SSE
NOSS 2-1 (D) 4.2 04:19:05 38° E 04:19:05 38° E 04:21:23 10° NE
Timation 2 Rocket 4.1 04:14:48 21° NNW 04:19:33 80° ENE 04:26:00 10° SE
CZ-2C R/B 2.3 04:15:18 10° NNE 04:20:18 80° WNW 04:21:33 52° SSW
Cosmos 1809 Rocket 4.3 04:17:49 10° SSW 04:23:56 83° W 04:30:05 10° N
ADEOS Rocket 3.5 04:19:11 10° N 04:25:13 43° WNW 04:25:40 43° WNW
NOSS 3-1 (C) 3.1 04:27:25 37° SSW 04:29:18 72° SE 04:35:01 10° NE
Iridium 4 Rocket 4.0 04:27:05 10° N 04:31:21 47° E 04:35:22 10° SSE
SJ 16-02 3.8 04:28:29 10° N 04:31:36 19° NE 04:34:42 10° E
Cosmos 2100 Rocket 3.8 04:25:36 10° NNW 04:31:44 77° W 04:37:53 10° S
Cosmos 2219 Rocket 2.4 04:36:50 44° WNW 04:37:29 46° NW 04:42:59 10° NNE
IRS-1D 4.1 04:35:25 10° NNE 04:40:20 56° ESE 04:45:09 10° S
SL-24 R/B - RUBIN 2 4.0 04:39:23 48° W 04:40:25 57° NW 04:45:15 10° NE
Cosmos 1707 Rocket 4.5 04:42:43 32° NNW 04:42:43 32° NNW 04:45:28 10° N
TIMED 4.3 04:40:17 40° NNW 04:41:48 85° WSW 04:46:03 10° SSE
NOSS 0 Rocket 4.5 04:37:52 10° S 04:43:52 59° ESE 04:49:55 10° NE
COSMOS 2428 2.7 04:41:35 10° SSW 04:47:17 89° ESE 04:53:00 10° NNE
USA 59 Rocket -1.0 04:50:48 78° NNW 04:50:48 78° NNW 04:53:41 10° NE
SL-08 RB Rocket 3.8 04:47:27 10° N 04:51:53 49° WNW 04:53:29 33° WSW
Cosmos 1459 Rocket 4.0 04:46:40 10° NNW 04:52:56 62° W 04:59:10 10° S
Cosmos 1864 Rocket 4.4 04:47:35 10° NNW 04:53:52 78° W 05:00:11 10° S
Cosmos 2322 3.6 04:50:01 15° SW 04:54:46 73° WNW 05:00:28 10° NNE
FengYun 1-2 T 4.2 04:51:19 10° NNE 04:56:54 86° WNW 05:02:30 10° SSW
COSMO-SKYMED 1 2.7 04:54:58 10° SSE 04:59:03 69° ENE 05:03:10 10° N
Meteor 2-21 4.4 04:53:36 10° SSW 04:59:38 62° WNW 05:05:40 10° N
Cosmos 407 Rocket 3.3 04:54:47 11° NNW 04:59:44 85° WSW 05:04:50 10° SSE
SKYMED 2 3.5 04:56:00 10° SSE 05:00:21 84° WSW 05:04:44 10° NNW
Cosmos 1727 Rocket 4.2 04:56:23 10° SW 05:02:16 45° WNW 05:08:14 10° N
Cosmos 1725 Rocket 3.9 04:57:05 10° NNW 05:03:24 73° W 05:09:41 10° S
Cosmos 2228 Rocket 3.7 05:03:28 33° WNW 05:03:28 33° WNW 05:07:26 10° N
USA 267 3.4 04:57:11 10° ENE 05:03:37 61° NNW 05:07:39 24° W
Cosmos 1980 4.2 05:01:31 10° SSW 05:07:05 63° ESE 05:12:41 10° NE
H-2A R/B 3.9 05:07:24 10° NNW 05:08:34 13° NNW 05:08:34 13° NNW
Cosmos 1802 Rocket 4.0 05:05:01 10° NNW 05:11:16 59° W 05:17:24 10° S
NOSS 3-1 (A) 3.3 05:08:48 10° SSW 05:13:28 66° SE 05:19:10 10° NE
Cosmos 2233 Rocket 4.0 05:08:17 10° N 05:14:39 85° W 05:20:56 10° S
Cosmos 1328 3.9 05:12:58 10° SSW 05:16:26 42° WNW 05:19:57 10° N
Cosmos 2278 Rocket 2.3 05:11:40 13° NW 05:16:43 57° WSW 05:22:13 10° S
Cosmos 1703 Rocket 3.6 05:13:34 10° SSW 05:17:50 55° WNW 05:22:10 10° N
Cosmos 2251 Rocket 3.7 05:13:11 10° NNW 05:18:35 80° ENE 05:23:57 10° SSE
CZ-3 R/B 4.3 05:17:00 10° SSW 05:20:32 12° S 05:23:12 10° SSE
NOSS 2-1 (E) 2.8 05:18:52 26° WSW 05:20:33 55° NW 05:23:34 10° NE
Cosmos 1939 Rocket 3.4 05:17:41 10° N 05:21:08 32° WNW 05:23:42 15° WSW
Lacrosse 5 rocket 2.3 05:20:39 20° NW 05:21:46 24° N 05:24:34 10° NE
Cosmos 2173 Rocket 4.4 05:16:39 10° NNW 05:22:05 35° W 05:27:30 10° SSW
Meteor 2-16 Rocket 4.4 05:16:09 10° SSW 05:22:13 67° WNW 05:28:20 10° N
Cosmos 2333 Rocket 3.8 05:21:32 16° NW 05:22:56 17° NNW 05:26:36 10° N
Cosmos 2237 Rocket 2.4 05:17:41 10° SSW 05:23:20 76° ESE 05:29:00 10° NNE
USA-17 4.1 05:22:08 26° NW 05:23:45 77° SW 05:27:04 10° SE
SL-08 R/B 4.4 05:19:29 10° NNW 05:25:30 62° W 05:31:33 10° S
Cosmos 2292 Rocket 3.8 05:24:02 10° SSW 05:28:16 66° WNW 05:33:48 10° N
BlueWalker 3 3.3 05:27:40 19° WSW 05:28:40 21° SW 05:31:27 10° S
USA 276 4.0 05:29:39 12° SW 05:29:49 12° SW 05:31:01 10° S
COSMOS 2455 4.2 05:28:15 17° WNW 05:31:01 23° NNW 05:35:42 10° NNE
ACS3 Solar Sail 3.1 05:27:38 10° NNW 05:31:09 16° NW 05:32:02 16° WNW
Meteor 1-24 Rocket 3.9 05:27:28 10° SSW 05:33:01 48° WNW 05:38:26 10° N
Helios 1A Rocket 3.1 05:30:28 10° SSW 05:33:33 32° W 05:36:22 12° NW
Cosmos 2242 Rocket 4.4 05:30:07 10° S 05:34:21 53° E 05:38:40 10° NNE
Cosmos 2369 Rocket 3.5 05:29:09 10° NNW 05:34:26 38° NE 05:39:43 10° ESE
CZ-4 R/B 4.0 05:30:53 10° N 05:35:41 55° WNW 05:40:23 10° SW
Cosmos 1782 Rocket 3.8 05:33:34 10° NNW 05:37:48 47° W 05:41:59 10° SSW
Cosmos 2360 Rocket 3.8 05:40:55 13° WNW 05:43:07 16° NNW 05:46:31 10° N
Cosmos 2322 Rocket 3.9 05:41:21 12° NW 05:43:32 15° NNW 05:46:42 10° N
Cosmos 2123 Rocket 4.3 05:37:58 10° SW 05:43:48 41° WNW 05:49:37 10° N
Meteor 2-5 Rocket 4.1 05:38:35 10° SW 05:44:14 45° WNW 05:49:51 10° N
NOAA 12 4.2 05:39:46 10° N 05:44:58 55° WNW 05:50:08 10° SW
Cosmos 1420 Rocket 4.1 05:40:13 10° SSW 05:45:29 86° ESE 05:50:49 10° NNE
Gbstr 26 Del rocket 3.7 05:41:19 12° WSW 05:46:08 85° NNW 05:52:31 10° ENE
CENTAUR R/B 3.8 05:40:07 10° NW 05:47:54 58° NE 05:57:00 10° ESE
SL-16 R/B 4.2 05:48:57 10° NW 05:50:24 11° NNW 05:51:51 10° N
ARIANE 5 R/B 4.4 05:45:49 10° NNE 05:50:26 35° E 05:55:04 10° SSE
Cosmos 1943 Rocket 3.0 05:48:18 10° NW 05:53:00 29° WSW 05:57:40 10° SSW
Cosmos 1812 2.0 05:53:54 10° N 05:56:51 83° E 05:59:46 10° S
CZ-2C R/B 4.0 05:54:54 10° NNW 05:57:36 15° NW 06:00:20 10° W
Cosmos 1300 Rocket 4.4 05:54:29 10° NNW 05:58:09 27° W 06:01:47 10° SSW
SMAP 4.1 05:54:46 10° NNE 05:59:20 51° E 06:03:52 10° S
CZ-2D R/B 4.4 05:59:01 10° NNE 06:02:02 38° E 06:05:01 10° S
Cosmos 2346 Rocket 4.4 05:56:15 10° SSW 06:02:23 68° WNW 06:08:30 10° N
NOSS 2-1 (C) 4.1 06:00:52 11° W 06:03:21 22° NW 06:05:46 10° NNE
NOSS 2-1 (D) 4.2 06:04:57 10° W 06:07:23 19° NNW 06:09:40 10° NNE
SJ 16-02 1.3 06:05:53 10° NNW 06:10:09 61° WSW 06:14:22 10° S
Iridium 4 Rocket 4.4 06:07:41 10° NNW 06:10:42 19° WNW 06:13:37 10° WSW
Aureole 3 Rocket 3.5 06:07:01 10° NNW 06:11:09 58° W 06:16:49 10° S
Okean 1 Rocket 4.0 06:07:13 10° N 06:11:29 50° ENE 06:15:41 10° SSE
CBERS-1 4.0 06:10:01 10° NNE 06:15:08 73° WNW 06:20:13 10° SSW
SWARM A 4.3 06:14:05 10° SSW 06:17:21 57° W 06:20:39 10° N
IRS-1D 4.5 06:15:10 10° N 06:19:07 24° WNW 06:23:03 10° WSW
Cosmos 1378 Rocket 3.5 06:15:42 10° S 06:19:59 83° WNW 06:24:17 10° N
NOSS 3-1 (C) 4.0 06:15:58 10° W 06:20:35 33° NNW 06:26:13 10° NE
Cosmos 676 Rocket 4.1 06:15:28 10° NNW 06:20:40 62° WSW 06:25:48 10° S
SL-16 R/B 2.8 06:15:58 10° SSW 06:21:35 65° ESE 06:27:14 10° NNE
In-Cosmos 22 Rocket 4.3 06:16:40 10° SSW 06:22:28 70° WNW 06:28:18 10° N
